SCP
1 1 1 1 1 1 1 0 0 1 1 1 1 1 1 1 2 2 2 2 3 4 4 4 3 3 3 3 4 4 3 2 2 1 1 1 1 1 1 2 2 2 3 3
1 1 1 1 1 1 1 0 1 1 1 1 1 1 1 2 2 2 2 2 3 4 5 5 4 4 3 4 5 5 4 2 2 2 1 1 1 1 2 2 3 3 3 3
1 1 1 1 1 1 1 1 1 1 1 1 2 2 2 2 2 2 2 2 3 4 5 6 6 5 4 5 6 6 4 3 3 3 2 2 2 2 2 3 4 4 4 4
1 1 1 1 1 1 1 2 2 2 2 2 2 2 2 2 2 2 2 3 4 4 5 6 6 6 5 5 6 5 4 3 3 4 3 3 3 3 3 4 5 5 5 4
1 1 1 1 1 1 1 2 2 2 2 2 2 2 2 2 2 2 2 3 4 5 5 6 6 5 4 4 4 4 4 4 4 4 4 4 4 4 4 4 5 4 4 4
1 1 1 1 1 1 1 2 2 2 3 2 2 2 2 3 3 2 3 4 5 5 6 7 6 5 4 3 3 3 4 5 5 4 4 5 5 5 5 5 4 3 3 2
1 1 1 1 1 1 2 2 2 2 3 4 3 3 2 3 3 3 4 5 6 7 7 7 7 5 4 3 3 3 5 5 4 4 4 4 5 6 6 5 4 3 3 2
1 1 1 1 2 2 2 2 2 2 2 3 3 3 2 3 3 4 4 6 7 8 8 8 7 6 4 3 3 3 4 4 4 4 4 4 5 6 6 6 4 3 3 2
2 2 2 2 2 2 2 2 1 1 1 2 2 2 3 4 4 5 5 6 7 8 8 8 7 7 6 5 4 4 3 4 4 4 4 4 4 5 5 5 4 3 3 3
2 2 2 2 1 1 1 1 1 1 1 1 2 2 3 4 4 5 5 6 7 7 8 7 7 8 8 6 5 4 4 5 5 5 5 4 4 4 4 4 3 3 3 3
2 2 2 2 1 1 1 1 1 2 2 2 2 2 2 3 4 4 5 6 7 7 8 7 7 7 7 7 6 5 5 6 5 5 4 4 3 3 3 3 3 2 2 2
2 2 1 1 1 1 1 1 1 2 2 2 2 2 2 3 3 4 4 5 6 7 7 6 6 6 7 7 6 6 5 5 4 4 3 3 3 3 2 2 1 1 1 1
2 2 1 1 1 1 1 1 1 1 2 2 2 2 2 3 3 4 4 5 5 5 5 5 5 5 6 7 7 6 5 4 3 3 3 3 3 3 2 2 1 1 0 0
1 1 1 1 1 1 1 1 1 1 1 1 2 2 2 3 3 4 5 5 5 5 4 4 5 5 6 6 7 6 5 4 3 3 3 3 3 3 3 2 2 2 1 0
1 1 1 2 2 2 1 1 2 2 2 2 2 2 2 3 3 4 5 5 5 5 4 4 5 6 6 6 6 6 4 3 3 3 3 2 2 3 3 3 3 2 2 1
2 2 2 2 2 2 1 1 2 2 2 3 3 3 3 3 3 4 5 6 6 6 5 5 6 7 7 6 5 4 3 2 2 2 2 2 2 2 3 2 2 2 2 2
2 2 3 3 2 2 2 1 2 2 3 3 3 3 3 3 4 4 5 6 7 7 6 5 6 6 6 5 4 3 2 2 1 1 1 1 2 2 2 2 1 1 1 1
2 2 3 2 2 2 2 2 2 2 3 3 3 3 3 4 5 6 7 7 8 7 6 5 5 5 5 5 4 3 2 1 1 1 1 1 1 1 1 1 1 1 1 1
2 2 2 1 1 1 1 1 1 2 2 2 2 3 3 4 5 8 10 10 9 8 6 5 4 4 4 4 3 2 1 1 1 1 1 1 1 1 1 1 1 1 1 1
1 1 1 1 1 1 1 1 1 1 1 1 2 2 3 4 6 10 11 10 9 7 6 3 3 3 3 2 2 2 1 1 1 1 1 1 1 1 1 1 1 1 1 1
0 0 0 1 1 1 1 0 0 1 1 1 1 2 4 6 7 8 8 7 6 5 3 2 2 1 1 1 1 1 1 1 1 1 1 1 1 1 1 1 1 1 1 1
0 0 0 1 1 0 0 0 0 0 0 0 1 1 3 5 5 5 4 3 2 2 1 1 1 1 0 0 0 1 1 1 0 0 1 1 1 1 1 1 1 1 1 1
1 1 0 0 0 0 0 0 0 0 0 0 0 1 1 2 2 2 1 1 1 0 0 0 0 0 0 0 0 1 1 0 0 0 1 1 1 1 1 1 1 1 1 1
1 0 0 0 0 0 0 0 0 0 0 0 0 0 0 0 1 1 1 1 0 0 0 0 0 0 0 0 0 0 0 0 0 0 1 1 1 1 1 1 1 1 1 1
0 0 0 0 0 0 0 0 0 0 0 0 0 0 0 0 0 1 1 1 0 0 0 0 0 0 0 0 0 0 0 0 0 0 0 1 1 1 1 1 1 1 1 0
0 0 0 0 0 0 0 0 0 0 0 0 0 0 0 0 0 1 1 1 0 0 0 0 0 0 0 0 0 0 0 0 0 0 0 0 0 1 1 1 1 1 1 1
0 0 0 0 0 0 0 0 0 0 0 0 0 0 0 0 0 0 1 1 1 0 0 0 0 0 1 1 0 0 0 0 0 1 1 0 0 1 1 1 1 1 1 1
Wind_Speed
8 7 6 11 17 16 13 11 8 6 5 6 7 6 9 13 14 14 14 14 14 13 12 12 12 12 12 12 12 11 10 9 8 7 7 6 6 5 5 5 5 4 4 3
9 9 10 12 14 14 14 14 11 7 5 4 5 5 6 11 15 15 15 16 15 15 14 13 12 12 11 11 11 10 10 9 9 8 8 7 6 6 5 5 4 3 4 4
10 7 7 11 14 13 13 13 9 7 3 6 6 6 8 10 14 14 15 15 14 15 14 12 13 11 11 11 10 10 9 9 9 8 8 8 8 7 6 5 5 4 4 4
7 7 11 9 7 9 10 7 5 2 2 5 6 4 5 7 10 13 13 14 13 13 14 13 13 12 11 12 11 11 10 9 9 9 8 8 6 6 6 5 4 4 5 5
6 8 9 8 7 6 5 2 3 2 2 2 5 5 5 6 8 10 12 11 12 13 14 13 13 12 12 12 12 12 12 10 10 9 8 8 7 6 5 5 4 5 5 5
6 8 6 7 9 6 4 2 4 4 4 2 1 3 3 4 6 8 10 10 12 13 14 13 12 12 12 13 13 12 11 10 9 8 8 7 7 6 5 5 5 5 6 6
9 8 3 4 8 5 2 1 5 6 6 4 4 3 2 3 5 6 8 10 11 11 12 12 12 12 12 11 11 10 10 9 8 8 7 7 6 5 5 5 6 6 5 5
6 7 3 3 3 2 2 4 5 5 5 4 4 3 3 4 5 5 7 10 11 9 10 11 12 12 11 9 9 8 8 8 8 8 8 8 6 6 5 5 6 6 6 6
2 2 2 2 4 2 2 3 4 4 4 3 2 2 2 4 5 6 7 8 9 10 10 10 11 11 11 9 8 8 8 8 7 7 6 5 7 7 6 6 6 6 6 7
2 1 1 3 3 2 3 4 5 4 3 3 3 2 2 4 5 5 6 7 8 10 10 10 10 10 9 8 8 8 8 7 6 6 7 6 5 6 7 7 7 6 6 5
0 1 2 4 5 5 5 5 5 4 4 4 3 3 3 4 5 5 6 6 7 8 9 10 9 9 9 8 8 8 8 7 7 7 7 5 6 5 6 5 5 5 4 3
2 4 4 4 5 6 5 5 5 5 5 4 3 3 3 3 4 5 6 6 6 8 9 9 9 9 8 8 8 8 8 7 7 7 6 7 7 7 9 9 7 7 5 4
3 4 4 3 4 5 4 4 4 4 4 4 4 3 3 4 4 5 6 6 6 7 7 8 8 8 7 7 8 7 6 5 5 6 6 6 6 6 6 8 11 11 11 10
3 3 3 3 4 4 4 4 4 4 4 4 4 4 4 4 5 5 5 6 6 6 7 7 8 7 6 7 7 6 6 6 5 4 4 5 6 6 6 6 6 7 11 16
4 3 3 4 5 5 5 5 6 5 5 5 5 5 5 4 4 4 4 5 6 6 6 7 7 6 6 7 7 7 6 5 5 5 5 5 5 6 6 6 5 4 4 7
4 4 4 5 5 6 6 6 6 6 7 6 6 6 6 5 4 4 4 5 5 5 5 5 5 5 5 5 5 4 4 6 6 5 5 5 5 5 5 4 4 4 4 4
5 6 6 6 5 6 7 8 7 7 7 7 7 6 6 6 5 6 5 5 5 5 5 4 3 4 4 3 3 3 4 5 6 6 6 5 4 4 4 4 4 4 3 1
8 7 7 7 7 8 9 9 10 10 8 8 8 7 7 7 6 6 5 5 6 6 5 4 3 2 2 2 1 2 2 2 3 4 3 3 3 3 4 5 5 5 3 2
11 10 10 10 9 9 10 10 10 10 9 9 8 8 8 7 7 6 6 5 5 5 4 4 2 2 3 3 1 1 2 3 3 2 2 3 4 5 5 4 4 4 4 4
12 12 11 11 11 11 10 10 9 9 9 8 7 7 7 6 5 5 5 4 4 3 3 3 2 2 2 3 2 1 2 3 3 3 3 4 4 4 4 5 5 5 4 4
11 10 10 10 10 10 10 9 8 8 8 8 7 7 6 5 5 4 4 4 4 4 3 3 2 2 3 3 3 3 3 3 3 3 3 4 4 4 5 5 5 5 5 5
9 9 9 9 9 9 8 8 8 8 8 8 7 7 6 5 4 4 3 3 3 3 2 2 3 4 4 4 3 4 4 5 4 4 3 3 4 4 5 5 5 5 4 4
8 8 8 8 8 7 7 7 8 7 7 6 6 6 5 4 3 3 3 3 3 3 2 2 3 3 4 4 4 5 5 5 4 4 4 4 4 4 5 5 4 4 4 4
6 6 5 5 5 6 6 6 5 4 4 4 4 4 3 3 3 3 3 3 4 2 2 1 1 1 4 4 5 4 4 3 4 4 4 4 4 5 5 5 5 5 5 6
5 5 6 6 5 5 4 3 2 3 3 3 4 4 4 4 4 4 4 3 2 2 3 1 3 3 5 5 5 4 4 4 5 5 5 5 6 6 5 5 5 5 5 5
3 3 4 4 4 3 4 4 5 5 5 5 5 5 5 5 5 5 4 5 5 4 5 3 2 3 4 5 5 5 5 4 4 4 5 5 6 6 6 6 7 6 5 5
1 2 2 3 5 6 6 6 6 6 6 7 7 7 6 6 5 6 6 6 5 5 5 5 5 4 5 5 5 5 5 5 5 5 5 5 5 5 6 7 6 6 5 5
Wind_Direction
235 201 215 256 269 273 264 251 246 245 230 202 194 184 176 165 163 167 170 173 167 163 163 163 162 163 166 169 166 166 169 172 166 166 165 171 175 180 185 195 202 194 205 218
259 223 224 243 262 259 257 253 238 216 230 193 176 180 190 173 168 170 173 180 173 168 166 166 165 168 167 166 162 162 170 173 167 171 171 175 181 186 190 197 206 205 215 224
262 250 251 249 245 241 249 254 248 240 195 160 169 176 180 175 174 176 178 179 174 171 170 169 169 168 166 164 160 164 172 175 170 175 178 181 192 190 192 195 202 213 226 229
262 266 249 243 261 266 254 253 260 257 162 161 158 172 169 175 176 176 179 178 174 172 169 170 169 166 165 165 165 170 176 181 175 180 185 183 194 192 188 192 204 213 224 232
262 257 266 289 288 294 288 299 340 292 249 168 148 165 178 184 177 171 176 172 168 172 172 169 170 167 167 170 172 178 183 185 182 183 186 185 192 192 187 195 207 216 222 225
245 252 245 276 303 323 309 292 360 11 9 17 124 207 160 156 161 166 171 164 165 169 166 162 162 162 171 176 178 184 185 184 181 179 186 188 189 186 190 198 214 226 228 223
239 249 246 278 313 323 256 28 21 34 30 26 43 26 60 120 139 149 150 150 155 159 160 159 158 161 172 178 180 181 180 176 175 175 182 187 184 181 188 203 217 228 237 233
242 247 249 341 1 15 10 13 37 36 27 34 53 52 77 110 128 146 146 149 152 149 149 151 156 161 171 176 171 171 172 172 174 174 192 193 182 185 195 209 219 223 231 243
241 226 103 66 85 73 333 15 19 29 29 24 59 71 100 126 136 146 141 140 145 144 143 149 157 164 173 170 162 164 167 170 171 173 193 194 182 191 201 209 228 234 226 229
205 248 0 21 55 54 21 24 8 7 21 24 55 60 97 122 126 130 132 135 142 147 151 154 161 166 167 161 160 163 168 168 170 177 189 201 197 201 210 215 220 230 239 239
238 26 32 33 20 1 20 15 355 358 28 43 51 73 86 101 117 127 130 137 144 147 153 157 158 163 166 162 162 168 170 172 181 191 197 206 207 215 221 222 220 224 243 261
351 350 346 358 353 1 11 7 357 13 28 34 51 80 91 103 114 122 130 134 142 151 157 158 159 163 164 163 166 171 177 182 193 200 198 204 211 221 227 231 225 221 225 242
18 354 339 333 360 4 9 20 18 25 29 35 46 68 94 98 107 116 127 137 144 149 149 150 154 158 160 159 165 174 183 186 202 208 205 206 214 219 225 225 231 238 239 239
33 14 343 354 12 7 24 41 42 49 50 57 58 67 81 94 108 114 123 135 138 139 141 144 149 157 163 160 166 177 192 194 208 221 226 223 223 226 232 231 219 227 233 234
23 11 21 27 30 34 42 51 52 51 58 65 69 71 75 76 87 100 105 118 126 136 141 146 151 157 159 166 175 188 200 206 208 225 234 237 237 237 239 240 243 234 226 222
10 28 51 50 44 41 46 50 55 55 58 61 61 66 75 80 78 87 98 111 123 132 130 139 151 153 155 167 177 195 210 221 220 234 243 246 247 252 255 252 253 256 249 246
47 45 48 48 49 46 49 50 51 56 59 60 60 54 65 75 75 76 84 95 102 97 97 106 117 129 141 151 185 219 223 216 216 228 242 252 259 266 272 279 282 281 282 279
66 59 48 42 47 51 50 52 54 54 53 58 66 63 61 68 68 65 70 83 89 88 81 83 86 98 118 126 176 267 283 268 234 245 258 276 289 291 287 285 287 289 287 267
67 62 56 53 52 53 54 53 55 57 52 50 61 67 68 68 68 65 64 68 75 75 61 60 81 126 116 86 62 284 286 283 274 271 282 281 276 277 283 284 285 289 298 302
64 59 56 54 53 53 54 53 53 56 55 54 60 70 71 68 69 71 68 61 62 65 69 67 67 50 66 54 344 288 294 297 301 307 304 297 292 291 288 286 289 292 289 281
65 61 57 53 51 50 50 49 50 53 51 48 51 57 63 61 57 64 68 62 57 42 41 62 72 55 42 12 324 310 300 299 298 291 289 287 287 287 286 286 291 293 292 292
59 55 54 56 56 53 50 48 50 51 49 43 41 44 47 48 44 47 54 67 81 50 19 21 50 55 25 336 308 297 290 285 285 285 284 285 288 290 293 297 297 296 300 307
54 51 47 46 48 48 47 46 46 45 41 36 37 36 29 25 19 19 32 51 62 49 6 22 57 37 343 304 298 294 293 298 304 306 306 304 300 297 296 301 305 308 315 314
46 40 35 32 37 46 45 41 38 39 33 21 33 34 15 12 23 22 32 56 46 32 338 34 115 315 301 292 294 297 305 316 322 318 315 318 318 317 320 321 319 323 320 316
41 31 25 14 18 26 23 8 19 36 31 30 26 27 10 13 6 4 359 2 30 326 312 294 233 261 278 292 301 316 326 335 337 333 328 328 324 320 321 324 325 317 310 306
30 15 24 5 1 343 342 358 3 2 7 15 17 19 10 5 358 351 343 340 340 324 309 308 287 267 282 301 316 325 327 328 319 309 314 318 318 320 321 321 318 315 316 317
12 22 356 354 12 11 4 7 8 9 14 15 5 358 352 350 348 345 339 335 338 334 331 331 329 321 316 317 320 324 323 321 322 325 326 324 326 332 331 326 322 320 319 322